Regional Weather Roundup
Issued by NWS

Home | Current Version | Previous Version | Text Only | Print | Product List | Glossary On
Versions: 1 2 3 4 5 6 7 8 9 10 11 12 13 14 15 16 17 18 19 20 21 22 23 24 25 26 27 28 29 30 31 32 33 34 35 36 37 38 39 40 41 42 43 44 45 46 47 48 49 50
841
ASUS43 KLSX 211659
RWRMO

WEATHER SUMMARY FOR MISSOURI
NATIONAL WEATHER SERVICE SPRINGFIELD MO
1200 PM CDT THU MAY 21 2015

NOTE: "FAIR" INDICATES FEW OR NO CLOUDS BELOW 12,000 FEET WITH NO
       SIGNIFICANT WEATHER AND/OR OBSTRUCTIONS TO VISIBILITY.
       CURRENT SKY AND/OR WEATHER CONDITIONS ARE NOT AVAILABLE FOR
       CHILLICOTHE AND FARMINGTON.

MOZ001>031-035>038-043-044-053-054-211800-
...NORTHERN AND WESTERN MISSOURI...

CITY           SKY/WX    TMP DP  RH WIND       PRES   REMARKS
KANSAS CTY INT MOSUNNY   59  44  57 N9        30.27F
KANSAS C DTWN  SUNNY     61  43  51 VRB6      30.27S
LEE`S SUMMIT   SUNNY     59  44  57 NE9       30.28R
ST JOSEPH      SUNNY     62  45  53 N12       30.26F
KIRKSVILLE     SUNNY     61  44  53 W7        30.21F

$$
MOZ066>068-077>081-088>096-101>105-211800-
...SOUTHWEST MISSOURI...

CITY           SKY/WX    TMP DP  RH WIND       PRES   REMARKS
SPRINGFIELD    CLOUDY    56  43  61 NE8       30.27R
JOPLIN         CLOUDY    57  46  66 VRB3      30.29S

$$
MOZ032>034-039>042-045>050-055>058-069>072-211800-
...CENTRAL MISSOURI...

CITY           SKY/WX    TMP DP  RH WIND       PRES   REMARKS
COLUMBIA       SUNNY     58  42  55 N7        30.25R
JEFFERSON CITY MOSUNNY   58  40  51 NE5G16    30.25R
ROLLA          PTSUNNY   54  44  69 N8        30.24R
SEDALIA        MOSUNNY   59  45  59 N8        30.28R
OSAGE BEACH    PTSUNNY   57  41  54 NW7       30.26S

$$
MOZ051-052-059>065-211800-
...EAST CENTRAL MISSOURI...

CITY           SKY/WX    TMP DP  RH WIND       PRES   REMARKS
ST LOUIS INTL  PTSUNNY   58  43  57 NW3       30.22S
SPIRIT OF STL  PTSUNNY   56  41  57 N3        30.22R
ST CHARLES     CLOUDY    57  43  59 N8        30.21S

$$
MOZ072>076-082>087-097>100-106>115-211800-
...SOUTH CENTRAL AND SOUTHEAST MISSOURI...

CITY           SKY/WX    TMP DP  RH WIND       PRES   REMARKS
CAPE GIRARDEAU CLOUDY    54  44  69 NW12      30.22R
FARMINGTON     CLOUDY    48  39  71 N8        30.28R
POPLAR BLUFF   LGT RAIN  52  43  71 NW12      30.24R
WEST PLAINS    CLOUDY    55  42  61 N9        30.26S

$$



USA.gov is the U.S. government's official web portal to all federal, state and local government web resources and services.